Terminal Aerodrome Forecast
Issued by NWS Grand Forks, ND

Home | Current Version | Previous Version | Graphics & Text | Print | Product List | Glossary On
Versions: 1 2 3 4 5 6 7 8 9 10 11 12 13 14 15 16 17 18 19 20 21 22 23 24 25
000
FTUS43 KFGF 180700 AAA
TAFGFK
TAF AMD
KGFK 180705Z 1807/1906 19007KT P6SM SCT012 BKN100
     FM180900 VRB05KT 6SM BR OVC008
      TEMPO 1809/1813 3SM BR OVC004
     FM181600 30008KT P6SM BKN025
     FM181900 33010KT P6SM VCTS BKN035CB=

USA.gov is the U.S. government's official web portal to all federal, state and local government web resources and services.